TimeCDT,TemperatureF,Dew PointF,Humidity,Sea Level PressureIn,VisibilityMPH,Wind Direction,Wind SpeedMPH,Gust SpeedMPH,PrecipitationIn,Events,Conditions,WindDirDegrees,DateUTC
12:53 AM,50.0,43.0,77,30.18,10.0,Calm,Calm,-,N/A,,Partly Cloudy,0,2012-05-14 05:53:00
2:53 AM,48.9,43.0,80,30.17,10.0,Calm,Calm,-,N/A,,Scattered Clouds,0,2012-05-14 07:53:00
3:53 AM,51.1,43.0,74,30.15,10.0,Calm,Calm,-,N/A,,Scattered Clouds,0,2012-05-14 08:53:00
4:53 AM,46.9,42.1,83,30.14,10.0,Calm,Calm,-,N/A,,Mostly Cloudy,0,2012-05-14 09:53:00
5:53 AM,45.0,41.0,86,30.14,10.0,Calm,Calm,-,N/A,,Scattered Clouds,0,2012-05-14 10:53:00
6:53 AM,44.1,39.9,85,30.15,10.0,WNW,3.5,-,N/A,,Clear,300,2012-05-14 11:53:00
7:53 AM,50.0,43.0,77,30.16,10.0,West,5.8,-,N/A,,Clear,270,2012-05-14 12:53:00
8:53 AM,60.1,46.9,62,30.17,10.0,NW,6.9,-,N/A,,Clear,310,2012-05-14 13:53:00
9:53 AM,66.9,46.9,49,30.17,10.0,Calm,Calm,-,N/A,,Clear,0,2012-05-14 14:53:00
10:53 AM,73.0,45.0,37,30.15,10.0,North,4.6,-,N/A,,Clear,350,2012-05-14 15:53:00
11:53 AM,75.0,37.0,25,30.15,10.0,Variable,3.5,-,N/A,,Clear,0,2012-05-14 16:53:00
12:53 PM,77.0,34.0,21,30.13,10.0,Variable,3.5,17.3,N/A,,Clear,0,2012-05-14 17:53:00
1:53 PM,79.0,32.0,18,30.09,10.0,NNW,13.8,19.6,N/A,,Clear,340,2012-05-14 18:53:00
2:53 PM,81.0,32.0,17,30.08,10.0,North,5.8,-,N/A,,Clear,10,2012-05-14 19:53:00
3:53 PM,82.0,28.0,14,30.05,10.0,NNW,11.5,-,N/A,,Clear,340,2012-05-14 20:53:00
4:53 PM,82.0,27.0,13,30.04,10.0,North,6.9,-,N/A,,Clear,360,2012-05-14 21:53:00
5:53 PM,82.0,26.1,13,30.03,10.0,Calm,Calm,-,N/A,,Clear,0,2012-05-14 22:53:00
6:53 PM,82.0,28.0,14,30.02,10.0,Calm,Calm,-,N/A,,Clear,0,2012-05-14 23:53:00
7:53 PM,77.0,39.9,26,30.01,10.0,Calm,Calm,-,N/A,,Clear,0,2012-05-15 00:53:00
8:53 PM,64.9,39.9,40,30.02,10.0,Calm,Calm,-,N/A,,Clear,0,2012-05-15 01:53:00
10:53 PM,50.0,39.0,66,30.04,10.0,Calm,Calm,-,N/A,,Clear,0,2012-05-15 03:53:00
11:53 PM,50.0,36.0,59,30.03,10.0,WNW,4.6,-,N/A,,Clear,300,2012-05-15 04:53:00